Regional Weather Roundup
Issued by NWS

Home | Current Version | Previous Version | Text Only | Print | Product List | Glossary On
Versions: 1 2 3 4 5 6 7 8 9 10 11 12 13 14 15 16 17 18 19 20 21 22 23 24 25 26 27 28 29 30 31 32 33 34 35 36 37 38 39 40 41 42 43 44 45 46 47 48 49 50
000
ASHW40 PHFO 032343
RWRHI

WEATHER ROUNDUP FOR HAWAII
NATIONAL WEATHER SERVICE HONOLULU HI
100 PM HST FRI JUL 03 2015

THIS IS AN AUTOMATED REPORT THAT HAS NOT BEEN QUALITY CONTROLLED.

NOTE..."FAIR" INDICATES FEW OR NO CLOUDS BELOW 12,000 FEET WITH NO
SIGNIFICANT WEATHER AND/OR OBSTRUCTIONS TO VISIBILITY.

* - THESE SITES REPORT LIMITED FIELDS

HIZ001>004-040000-
KAUAI-NIIHAU-

CITY           SKY/WX    TMP DP  RH WIND       PRES   REMARKS
LIHUE APT      MOSUNNY   86  73  65 E10       29.93F HX  93
PORT ALLEN*    NOT AVBL
POIPU*           N/A     86 N/A N/A E7G14       N/A
PRINCEVILLE*     N/A     84 N/A N/A MISG        N/A
KOKOLE POINT*  NOT AVBL
MOLOAA DAIRY*  NOT AVBL
WAIMEA HTS*      N/A     90  72  55 SW10G18     N/A  HX  96
PUU OPAE*        N/A     79  66  65 S7          N/A
PUU LUA*       NOT AVBL
MAKAHA RIDGE*    N/A     84  61  45 W3          N/A
$$

HIZ005>011-040000-
OAHU-

CITY           SKY/WX    TMP DP  RH WIND       PRES   REMARKS
HONOLULU       MOSUNNY   90  67  46 NE9       29.89F HX  93
KALAELOA       SUNNY     85  71  63 SE10G18   29.91F HX  90
KANEOHE MCB    PTSUNNY   84  73  69 NE12      29.90F HX  90
WHEELER FIELD  PTSUNNY   85  68  57 N7        29.90F
BELLOWS*         N/A    N/A N/A N/A NE9         N/A
KAHUKU*          N/A    N/A N/A N/A E12G22      N/A
WHEELER*       NOT AVBL
WAIANAE HARBOR NOT AVBL
DILLINGHAM*      N/A     91  68  46 MISG        N/A  HX  95
KAHUKU TRN*      N/A     73  57  56 E13G22      N/A
KAWAILOA*        N/A     82  68  61 S2G10       N/A
KII*             N/A     82  73  74 E15         N/A
MAKUA RANGE*     N/A     84  72  65 NW3G9       N/A
OAHU FOREST NW   N/A     72  68  88 CALM        N/A
SCHOFIELD BRK*   N/A     66  52  59 MISG        N/A
SCHOFIELD S*   NOT AVBL
WAIANAE VLY*     N/A     90  75  62 MISG        N/A  HX 100
KUAOKALA*        N/A     82  72  69 SW7         N/A
HONOULIUULI*   NOT AVBL
MOKUOLOE IS*     N/A    N/A N/A N/A MISG        N/A
PALEHUA*         N/A     81  68  65 E3G10       N/A
WAIAWA PHB*    NOT AVBL
$$

HIZ012>013-040000-
MOLOKAI-

CITY           SKY/WX    TMP DP  RH WIND       PRES   REMARKS
MOLOKAI AIRPT  MOSUNNY   87  68  52 S9        29.91F HX  90
KALAUPAPA      NOT AVBL
MAKAPULAPAI*     N/A     86  70  58 E18G28      N/A  HX  90
MOLOKAI 1*       N/A     81  66  61 SE2G10      N/A
PUU ALII*        N/A     76  69  79 NE1G10      N/A
$$

HIZ016-040000-
KAHOOLAWE-

CITY           SKY/WX    TMP DP  RH WIND       PRES   REMARKS
KAHOOLAWE*     NOT AVBL
HAKIOAWA*        N/A     82  71  69 MISG      30.33F
HONOKANAIA*      N/A     84  68  58 E21G35    29.92F
KANELOA*         N/A     81  68  65 E21G30      N/A
KEALIALALO*      N/A     84  70  61 E15G32      N/A
LUA MAKIKA*    NOT AVBL
$$

HIZ014>015-040000-
LANAI-

CITY           SKY/WX    TMP DP  RH WIND       PRES   REMARKS
LANAI CITY     CLOUDY    79  70  74 VRB6      29.97F
LANAI 1*         N/A     72  59  64 NE12G22     N/A
$$

HIZ017>028-040000-
MAUI-

CITY           SKY/WX    TMP DP  RH WIND       PRES   REMARKS
KAHULUI        MOSUNNY   92  69  47 NE17G23   29.89F HX  97
KAPALUA-W MAUI MOSUNNY   82  72  69 W7        29.92F
HANA AIRPORT   MOSUNNY   84  70  61 E9        29.95F
HANA*            N/A     84 N/A N/A E8G16       N/A
HALEAKALA SUMM   N/A     57  46  67 N6G30       N/A
MAALAEA BAY*   NOT AVBL
HALEAKALA*     NOT AVBL
KAUPO GAP*       N/A     75  66  73 NE5G15      N/A
KULA 1*          N/A     69  59  71 NW6G12      N/A
$$

HIZ023>026-040000-
BIG ISLAND OF HAWAII COAST AND LOWER SLOPES-

CITY           SKY/WX    TMP DP  RH WIND       PRES   REMARKS
KAILUA KONA    CLOUDY    86  74  67 W12       29.88F HX  94
HILO           MOSUNNY   86  68  54 NE13      29.93S
HONOKAA*       NOT AVBL
KAWAIHAE MWT*    N/A     90 N/A N/A W6          N/A
KAWAIHAE*        N/A     81 N/A N/A W7          N/A
SOUTH POINT*     N/A     77 N/A N/A NE15G22     N/A
UPOLU AIRPORT*   N/A    N/A N/A N/A E18G28      N/A
KAMUELA*       MOCLDY    81  63  54 NE16      30.01F
HAKALAU*         N/A     71  49  46 NE6G12      N/A
KALOKO-HONOKO*   N/A     84  72  65 W7        29.87F
PALI 2*          N/A     79  66  65 SE18G30     N/A
KEALAKOMO*       N/A    N/A N/A N/A E20G26      N/A
KAUPULEHU*       N/A     81  72  74 W9G17       N/A
KAPAPALA*        N/A     77  69  77 E7G14       N/A
LOWER KAHUKU*    N/A     68  66  94 N3G13       N/A
PUHE CS*         N/A     84  73  70 W3G9        N/A  HX  91
PUHO CS*         N/A     84  70  62 W3          N/A
PTA KEAMUKU*     N/A     79  61  53 CALM        N/A
WAIKOLOA*        N/A     84  72  65 W8G16       N/A
$$

HIZ027>028-040000-
BIG ISLAND OF HAWAII INTERIOR AND SUMMMITS-

CITY           SKY/WX    TMP DP  RH WIND       PRES   REMARKS
BRADSHAW FIELD MOSUNNY   77  55  46 W10G22    30.25S
MK VISITOR CEN   N/A      0   0 100 MISG        N/A
MAUNA KEA*       N/A     41  34  75 NW9         N/A
MAUNA LOA*       N/A     54  32  43 MISG        N/A
MAUNA LOA 1*   NOT AVBL
PTA KIPUKA*      N/A     75  55  50 NW7G16      N/A
PTA RANGE 17*    N/A     54  39  58 NW13G22     N/A
PTA WEST*        N/A     75  63  64 N10G18      N/A
NENE CABIN*      N/A     70  50  49 E8G14       N/A
AHUMOA*          N/A     69  62  78 N8G14       N/A
PTA PORTABLE*  NOT AVBL
PUU MALI*        N/A     66  59  77 NE20G32     N/A
$$

HIC003-040000-
NORTHWEST ISLANDS-

CITY           SKY/WX    TMP DP  RH WIND       PRES   REMARKS
MIDWAY ISLAND  MOSUNNY   84  75  74 W12G17    29.96S HX  92
MIDWAY NOS*    NOT AVBL
FRENCH FRIGATE NOT AVBL
$$

PHZ110>124-180-040000-
BUOY REPORTS

STATION/POSITION TIME  TEMP    WIND        PRES    WAVE   SWELL
                       AIR SEA DIR/SP/G            HT/PER HT/DIR
                 (UTC) (F)     (DEG/KT/KT) (MB)    (FT/S) (FT/D)
BUOY 51001       NOT AVBL
BUOY 51101       2300   79 81  230/  4/  6 1012.4F   5/ 9   5/ 10
BUOY 51100       NOT AVBL
BUOY 51002       2300   80 81   90/ 16/ 19 1011.3F   7/14   5/ 80
BUOY 51003       2300   81 82  140/  8/ 10 1012.5F   6/15   5
BUOY 51004       2225   79 80   70/ 14/ 16 1011.6F   6/ 7   5/ 80
BARBERS PT BUOY  NOT AVBL
WAIMEA BAY BUOY  2300      79                N/A     3/10   2/320
KAILUA BAY BUOY  2300      80                N/A     4/ 6   2/350
LANAI BUOY       NOT AVBL
BARBERS PT 2     2300      81                N/A     4/14   3/180
PAUWELA MAUI     2300      79                N/A     5/ 8
HILO             2300      80                N/A     5/ 8   2/ 30
KANEOHE BAY BUOY 2300      80                N/A     4/ 8   2/340
HANALEI KAUAI    2300      81                N/A     5/ 9
KAHULUI HARBOR   2300   82 82  350/  9/ 13 1011.8F
HONOLULU HARBOR  2300   86 82   50/  7/ 12 1012.2F
KILO NALU        NOT AVBL
HILO HARBOR      2300   85 78   40/  9/ 14 1012.8F
MOKUOLOE         2300      84              1013.6F
NAWILIWILI       2300   81 82   90/  7/  8 1012.8F
WHOTS BUOY       NOT AVBL
BUOY 51028       NOT AVBL
$$

......................KEY........................................
  SKY/WX - SKY CONDITIONS/PRESENT WEATHER
  TMP    - TEMPERATURE IN FAHRENHEIT
  DWPT   - DEWPOINT IN FAHRENHEIT
  RH     - RELATIVE HUMIDITY IN PERCENT
  WIND   - DIRECTION AND SPEED /MPH FOR ISLANDS...KTS FOR BUOYS/
  PRES   - MEAN SEA LEVEL PRESSURE IN INCHES OF HG
  VSB    - VISIBILITY IN MILES
  HX     - HEAT INDEX
  WCI    - WIND CHILL INDEX
  VRB    - VARIABLE WIND DIRECTION
  N/A    - NOT AVAILABLE


USA.gov is the U.S. government's official web portal to all federal, state and local government web resources and services.